Showing default

YAOGAN-30 AB, 48861

Orbit data source: Space-Track

YAOGAN-30 AB, 48861 is a payload satellite owned by PLA SSF (CN) in LEO that was launched on Fri, 18 Jun 2021 UTC via a CHANG ZHENG 2C launch vehicle from the Xichang Space Center, China (XSC). Payload-class satellites include a variety of spacecraft equipped with specific instruments for various scientific and technological missions. These include communications satellites like Starlink; space stations such as the ISS; scientific satellites like the Hubble; Earth observation satellites from companies like Planet Labs, Umbra, and HawkEye 360; GPS; miniature CubeSats for education and research; and military/defense satellites.

Loading next visibility...
Identifier
48861, 2021-055B
Orbit
LEO
Country
Flag of CNCN / PRC
Related business
Manufacturer
SECM
Mission
Operational Defense Sigint
Bus & Motor
Unknown
Mass
~500 kg wet, ~500 kg dry
Launch date (UTC)
2021-06-18 (5 years ago)
Launch vehicle
CHANG ZHENG 2C
Launch site
Xichang Space Center, China (XSC)
Object type
Payload
Rocket body
Debris
Shape & HBR
Box + 2 Pan, 0.5 m
Radar Cross Section
0.446 m², Large (>1 m²)

Expand to show TLE details & history
Last TLE update: 1 day ago

TLE from 1 day ago
0 YAOGAN-30 AB
1 48861U 21055B   26172.30111904  .00001644  00000-0  12295-3 0  9994
2 48861  34.9942 126.7980 0003123 122.1749 237.9263 15.02677779273799
Epoch: 2026-06-21T07:13Z
TLE epoch observation values (Epoch: 2026-06-21T07:13:36.685Z)
Latitude
0.00004°
Longitude
108.89184°
Altitude
558.71 km
Speed
7.584 km/s
True Right ascension
08h 27m 11s
True Declination
0° 00' 00"
Sunlit
Object was in daylight at epoch
Visualization orbit readout
Latitude
Unknown
Longitude
Unknown
Altitude
Unknown
Speed
Unknown
Apparent Right ascension
Unknown
Apparent Declination
Unknown
Sunlit
N/A
Visualization observer readout
Local Sidereal Time
21:54:00
Azimuth
Unknown
Elevation
Unknown
Doppler factor
Unknown
Orbital elements
Apogee altitude
564.033 km
Perigee altitude
559.698 km
Semi-major axis
6,940.002 km
Eccentricity
0.00031
Inclination
34.9942°
RAAN
126.798°
Arg. of periapsis
122.1749°
True anomaly
237.89598°
Mean anomaly
237.9263°
Eccentric anomaly
237.91114°
Mean motion
3.75408 °/min
Orbital period
95.9 mins
BSTAR
0.00012295
Loading maneuver chart data...
Computing Atmospheric mass density...
Loading historical data...
Loading historical data...
Loading historical data...
Loading historical data...
Loading historical data...
Loading historical data...
Loading historical data...
Other satellites on launch #55 in the year 2021 (2021-06-18 UTC)

Documentation

Showing up to 5 results
|